User: anonymous   Login
Location: Cluny
(50.9333°N, 112.8167°W)
Time: 20:26:11
(UTC-06:00)
Language:

Cosmos 1743 Rocket - Orbit

View from above orbital plane
View from above orbital plane
View from above satellite
View from above satellite

Ground track
Ground track

The orbit data is extracted from the following two-line orbital elements,

1 16720U 86034B   15243.78683397  .00000201  00000-0  21598-4 0  9995
2 16720  82.5553 132.4771 0021837 102.5307 321.2442 14.83119107582110
Epoch (UTC): 31 August 2015 18:53:02
Eccentricity: 0.0021837
inclination: 82.5553°
perigee height: 604 km
apogee height: 635 km
right ascension of ascending node: 132.4771°
argument of perigee: 102.5307°
revolutions per day: 14.83119107
mean anomaly at epoch: 321.2442°
orbit number at epoch: 58211

The dashed part of the orbit path shows where the satellite is in the earth's shadow,  

DLR